Weather Roundup
Issued by NWS Chicago, IL

Home | Current Version | Previous Version | Text Only | Print | Product List | Glossary Off
Versions: 1 2 3 4 5 6 7 8 9 10 11 12 13 14 15 16 17 18 19 20 21 22 23 24 25 26 27 28 29 30 31 32 33 34 35 36 37 38 39 40 41 42 43 44 45 46 47 48 49 50

000
NZUS59 KLOT 271710
HRRLOT

CHICAGO AREA WEATHER ROUNDUP
NATIONAL WEATHER SERVICE CHICAGO/ROMEOVILLE IL
1100 AM CST SAT DEC 27 2014

NOTE: "FAIR" INDICATES FEW OR NO CLOUDS BELOW 12,000 FEET WITH NO
SIGNIFICANT WEATHER AND/OR OBSTRUCTIONS TO VISIBILITY.

* THESE STATIONS ARE NOT UNDER NWS QUALITY CONTROL. THEY ALSO MAY NOT
  REPORT WEATHER SUCH AS PRECIPITATION OR FOG.

ILZ005-006-012>014-019>023-271800-
NORTHEAST ILLINOIS

CITY           SKY/WX    TMP DP  RH WIND       PRES   REMARKS
OHARE          DRIZZLE   48  46  93 SW17G25   29.94F FOG
MIDWAY         DRIZZLE   50  47  89 SW17G25   29.96F
AURORA         CLOUDY    40  36  86 W24G35    30.02R
LANSING*       CLOUDY    48  47  96 SW17G24   29.99F FOG
JOLIET*        CLOUDY    45  43  91 W16G25    30.01R
WAUKEGAN       CLOUDY    49  44  83 SW20G31   29.91S
DUPAGE AIRPORT CLOUDY    41  37  86 W24G35    29.99R
WHEELING       CLOUDY    49  46  90 SW17G24   29.95F
KANKAKEE*      CLOUDY    48  47  96 SW18G24   30.05R FOG
MORRIS*        CLOUDY    42  40  93 W26G35    30.04R
LEWIS AIRPORT* CLOUDY    45  43  93 W21G31    30.00R
NORTHERLY IS     N/A     48  45  89 S15         N/A
$$

WIZ051-052-058>065-066-070>072-271800-
SOUTHEAST WISCONSIN

CITY           SKY/WX    TMP DP  RH WIND       PRES   REMARKS
MILWAUKEE      CLOUDY    49  41  74 SW23G35   29.86R
KENOSHA*       CLOUDY    48  44  86 W30G38    29.89F
RACINE*        CLOUDY    50  45  83 SW14G24   29.88F
BURLINGTON     CLOUDY    41  38  86 W20G28    29.90R
WAUKESHA       CLOUDY    41  37  87 W21G29    29.88R FOG
WEST BEND      CLOUDY    43  39  87 W25G36    29.84R
$$

INZ001>003-010>013-019-020-271800-
NORTHWEST INDIANA

CITY           SKY/WX    TMP DP  RH WIND       PRES   REMARKS
GARY*          CLOUDY    50  45  81 S14G26    29.99F FOG
MICHIGAN CITY* NOT AVBL
RENSSELAER*    NOT AVBL
VALPARAISO     CLOUDY    46  45  96 SW14G22   30.01F FOG
$$

LMZ740>746-271800-
SOUTHERN LAKE MICHIGAN

STATION/POSITION TIME  SKY/WX   TEMP WIND        PRES    VSBY
                                AIR  DIR/SP/G
                 (UTC)          (F)  (DEG/KT/KT) (MB)    (MI)
HARRISON CRIB    1700            47  210/ 25/ 31   N/A
BURNHAM HARBOR   1700            48  190/ 17/ 17   N/A
CALUMET HARBOR   1600            47  190/ 14/ 22 1013.9F
BURNS HARBOR     NOT AVBL
MICHIGAN CITY    1700            47  180/ 18/ 22   N/A
$$

ABBREVIATIONS USED IN REMARKS
   TC - TEMPERATURE IN CELSIUS
  WCI - WIND CHILL INDEX
   HX - HEAT INDEX
  VSB - VISIBILITY
$$



USA.gov is the U.S. government's official web portal to all federal, state and local government web resources and services.